Flag for Germany Weather past 2 weeks in Ravensburg, Baden-Württemberg, Germany

Now
61 °F

Sunny.


Feels Like: 61 °F
Forecast: 37 / 60 °F
Wind: 13 mph from Northeast

Location: Friedrichshafen Airport

Current Time: Apr 19, 2015 at 6:23:52 PM

Latest Report: Apr 19, 2015 at 5:50 PM


Visibility: 10 mi

Pressure: 30.01 "Hg

Humidity: 27%

Dew point: 27 °F

Location of RavensburgLocation

Historic Weather in Ravensburg — Graph

°F

Ravensburg temperature yesterday

Maximum temperature yesterday: 52 °F (at 12:20 PM)
Minimum temperature yesterday: 41 °F (at 5:20 AM)
Average temperature yesterday: 46 °F

Past Weeks' High & Low Weather Summary

 TemperatureHumidityPressure
High72 °F (Apr 15, 3:50 PM)94% (Apr 17, 9:50 PM)30.57 "Hg (Apr 17, 9:50 PM)
Low27 °F (Apr 6, 7:20 AM)15% (Apr 15, 5:20 PM)29.86 "Hg (Apr 4, 5:20 PM)
Average48 °F57%30.24 "Hg
* Reported Apr 4 5:20 PM — Apr 19 5:20 PM, Ravensburg, Weather by CustomWeather, © 2015

Note: Actual official high and low records may vary slightly from our data, if they occured in-between our weather recording intervals... More about our weather records

Advertising

Ravensburg weather history for previous 24 hours

 ConditionsComfort  
Time TempWeatherWind HumidityBarometerVisibility
5:20 PM
Sun, Apr 19
61 °FSunny.13 mph25%30.01 "Hg10 mi
4:50 PM63 °FSunny.14 mph22%30.01 "Hg10 mi
4:20 PM63 °FSunny.12 mph24%30.01 "Hg10 mi
3:50 PM61 °FPassing clouds.10 mph27%30.01 "HgN/A
3:20 PM61 °FPassing clouds.14 mph25%30.01 "HgN/A
2:50 PM61 °FSunny.12 mph25%30.04 "Hg10 mi
2:20 PM61 °FPassing clouds.10 mph27%30.04 "HgN/A
1:50 PM59 °FSunny.14 mph27%30.04 "Hg10 mi
1:20 PM57 °FPassing clouds.13 mph29%30.04 "HgN/A
12:50 PM57 °FPassing clouds.13 mph29%30.04 "HgN/A
12:20 PM55 °FSunny.15 mph33%30.04 "Hg10 mi
11:50 AM55 °FSunny.12 mph31%30.04 "Hg10 mi
11:20 AM54 °FSunny.12 mph30%30.07 "Hg10 mi
10:50 AM52 °FSunny.15 mph35%30.07 "Hg10 mi
10:20 AM48 °FSunny.13 mph40%30.07 "Hg10 mi
9:50 AM46 °FSunny.14 mph46%30.07 "Hg10 mi
9:20 AM45 °FSunny.13 mph49%30.07 "Hg10 mi
8:50 AM43 °FSunny.9 mph53%30.07 "Hg10 mi
8:20 AM41 °FSunny.10 mph57%30.07 "Hg10 mi
7:50 AM39 °FSunny.9 mph56%30.07 "Hg10 mi
7:20 AM37 °FChilly.10 mph60%30.07 "HgN/A
6:50 AM36 °FChilly.9 mph65%30.07 "HgN/A
6:20 AM36 °FPassing clouds.8 mph65%30.07 "HgN/A
5:50 AM36 °FClear.7 mph65%30.07 "Hg10 mi
5:20 AM36 °FChilly.7 mph65%30.09 "HgN/A
4:50 AM37 °FChilly.7 mph60%30.09 "HgN/A
4:20 AM37 °FChilly.8 mph60%30.09 "HgN/A
3:50 AM39 °FChilly.7 mph56%30.09 "HgN/A
3:20 AM39 °FChilly.9 mph52%30.12 "HgN/A
2:50 AM41 °FQuite cool.8 mph49%30.12 "HgN/A
2:20 AM41 °FQuite cool.10 mph49%30.12 "HgN/A
1:50 AM41 °FQuite cool.10 mph49%30.15 "HgN/A
1:20 AM41 °FQuite cool.12 mph49%30.12 "HgN/A
12:50 AM41 °FQuite cool.7 mph53%30.15 "HgN/A
12:20 AM41 °FQuite cool.9 mph53%30.15 "HgN/A
11:50 PM
Sat, Apr 18
41 °FQuite cool.7 mph53%30.15 "HgN/A
11:20 PM43 °FQuite cool.7 mph49%30.15 "HgN/A
10:50 PM43 °FQuite cool.7 mph49%30.15 "HgN/A
10:20 PM43 °FQuite cool.7 mph49%30.18 "HgN/A
9:50 PM45 °FClear.7 mph46%30.18 "Hg10 mi
9:20 PM45 °FPassing clouds.7 mph42%30.18 "HgN/A
8:50 PM46 °FSunny.7 mph40%30.15 "Hg10 mi
8:20 PM46 °FSunny.7 mph40%30.15 "Hg10 mi
7:50 PM48 °FSunny.8 mph34%30.15 "Hg10 mi
7:20 PM50 °FSunny.15 mph32%30.15 "Hg10 mi
6:50 PM50 °FPassing clouds.13 mph35%30.15 "HgN/A
6:20 PM52 °FPassing clouds.13 mph32%30.15 "HgN/A
Weather by CustomWeather, © 2015

See weather overviewHow to use our weather pages